Regional Weather Roundup
Issued by NWS

Home | Current Version | Previous Version | Graphics & Text | Print | Product List | Glossary Off
Versions: 1 2 3 4 5 6 7 8 9 10 11 12 13 14 15 16 17 18 19 20 21 22 23 24 25 26 27 28 29 30 31 32 33 34 35 36 37 38 39 40 41 42 43 44 45 46 47 48 49 50

000
ASUS43 KMKX 311721
RWRWI

WISCONSIN REGIONAL WEATHER ROUNDUP
NATIONAL WEATHER SERVICE MILWAUKEE/SULLIVAN WI
1200 PM CDT WED AUG 31 2016

NOTE: "FAIR" INDICATES FEW OR NO CLOUDS BELOW 12,000 FEET WITH NO
SIGNIFICANT WEATHER AND/OR OBSTRUCTIONS TO VISIBILITY.

WIZ001-002-006>008-014>016-023>028-311800-
NORTHWEST WISCONSIN

CITY           SKY/WX    TMP DP  RH WIND       PRES   REMARKS
SUPERIOR ARPT  SUNNY     72  54  52 CALM      30.20F
ASHLAND        PTSUNNY   73  55  53 NE9       30.20F
HAYWARD        MOSUNNY   70  50  49 VRB6      30.21F
SIREN          SUNNY     71  51  48 N7        30.22S
CUMBERLAND     SUNNY     70  48  46 N6        30.21F
RICE LAKE      SUNNY     72  50  47 N6        30.22S
CHETEK         NOT AVBL
LADYSMITH      PTSUNNY   73  52  48 N10       30.21F
EAU CLAIRE     SUNNY     74  53  48 N8        30.18
MENOMONIE      SUNNY     74  50  42 NW6       30.19F
NEW RICHMOND   SUNNY     73  50  45 NW6       30.21F
OSCEOLA        SUNNY     71  52  49 N6        30.24S
$$

WIZ003>005-009-010-017-018-311800-
NORTH CENTRAL WISCONSIN

CITY           SKY/WX    TMP DP  RH WIND       PRES   REMARKS
MANITOWISH WTR NOT AVBL
ARBOR VITAE    MOSUNNY   72  56  57 N10G16    30.19F
WOODRUFF       MOSUNNY   72  56  57 N10G16    30.19F
RHINELANDER    PTSUNNY   67  53  61 NW9       30.19F
EAGLE RIVER    MOSUNNY   69  50  50 N8        30.18S
LAND O LAKES   CLOUDY    67  53  61 NW8       30.20S
PHILLIPS       PTSUNNY   67  53  60 N5        30.19F
TOMAHAWK       MOSUNNY   69  51  53 N8        30.19F
MEDFORD        MOSUNNY   70  54  56 NW10      30.19S
MERRILL        MOSUNNY   72  53  51 N13       30.18F
$$

WIZ029-030-035-036-043>047-311800-
CENTRAL WISCONSIN

CITY           SKY/WX    TMP DP  RH WIND       PRES   REMARKS
WAUSAU         MOSUNNY   70  51  51 N10       30.16S
MOSINEE        MOSUNNY   70  54  56 N7G16     30.18F
MARSHFIELD     SUNNY     75  50  41 N10       30.17S
STEVENS POINT  SUNNY     71  50  47 NW9       30.16F
WAUPACA        SUNNY     76  52  42 N7        30.14F
WAUTOMA        SUNNY     74  51  44 N8        30.14F
WISC RAPIDS    SUNNY     75  51  43 N10       30.17F
CAMP DOUGLAS   MOSUNNY   73  57  56 N8        30.16F
$$

WIZ011>013-019>022-031-037>040-048>050-311800-
NORTHEAST WISCONSIN

CITY           SKY/WX    TMP DP  RH WIND       PRES   REMARKS
ANTIGO         CLOUDY    68  53  58 N10       30.18S
SHAWANO        MOSUNNY   74  57  53 NE6       30.14S
OCONTO         NOT AVBL
STURGEON BAY   SUNNY     70  58  65 NW9       30.13F
GREEN BAY      NOT AVBL
MANITOWOC      SUNNY     73  54  51 N13       30.12S
APPLETON       MOSUNNY   72  50  46 N7        30.13S
CLINTONVILLE   MOSUNNY   73  50  43 N7        30.13F
OSHKOSH        SUNNY     73  53  49 VRB5      30.13S
$$

WIZ032>034-041-042-053>061-311800-
SOUTHWEST WISCONSIN

CITY           SKY/WX    TMP DP  RH WIND       PRES   REMARKS
LA CROSSE      SUNNY     75  57  53 NW7       30.16F
SPARTA         SUNNY     72  56  56 NW8       30.17F
VIROQUA        SUNNY     72  55  54 N5        30.18F
BOSCOBEL       SUNNY     77  54  44 VRB6      30.16S
PRAIRIE DU CHI SUNNY     74  51  44 N8        30.15F
PLATTEVILLE    SUNNY     73  61  66 N9        30.15F
$$

WIZ056-057-062-063-064-067-068-311800-
SOUTH CENTRAL WISCONSIN

CITY           SKY/WX    TMP DP  RH WIND       PRES   REMARKS
REEDSBURG      NOT AVBL
BARABOO/DELLS  SUNNY     72  52  48 N3        30.15F
LONE ROCK      SUNNY     75  53  46 MISG      30.16S
MINERAL POINT  SUNNY     73  54  49 N9        30.16S
MADISON        MOSUNNY   73  56  54 NE9       30.13F
MIDDLETON      SUNNY     73  56  54 N8        30.14F
WATERTOWN      SUNNY     73  56  56 N12       30.13R
MONROE         MOSUNNY   72  57  60 N10       30.13F
JANESVILLE     MOSUNNY   73  54  49 N9        30.12R
$$

WIZ051-052-058>065-066-070>072-311800-
SOUTHEAST WISCONSIN

CITY           SKY/WX    TMP DP  RH WIND       PRES   REMARKS
MILWAUKEE      MOSUNNY   73  58  59 N16       30.11S
WAUKESHA       MOSUNNY   72  55  56 N9        30.13S
MILWAUKEE/TIMM MOSUNNY   73  54  49 NE8       30.12S
RACINE         SUNNY     72  61  68 N14       30.12S
BURLINGTON     MOSUNNY   73  56  56 NE10      30.11S
KENOSHA        MOSUNNY   73  60  63 N12       30.11R
FOND DU LAC    SUNNY     74  54  49 NE9       30.13F
SHEBOYGAN      SUNNY     74  52  46 N9        30.12S
WEST BEND      SUNNY     72  52  49 N8        30.12S
JUNEAU         SUNNY     71  55  55 N10       30.14F
$$

LSZ147-162-311800-
LAKE SUPERIOR

STATION/POSITION TIME  TEMP    WIND        PRES    WAVE
                       AIR SEA DIR/SP/G            HT/PER
                 (UTC) (F)     (DEG/KT/KT) (MB)    (FT/S)
W MID LAKE BUOY  1650   65 67  350/  6/  6 1021.8R   1/ 3
DEVILS ISLAND    1700   66     290/  3/  5 1022.7S
PORT WING        1600   66     290/  6/  7 1023.0
SAXON HARBOR     1540   66     300/  4/  5 1022.7R
$$

LMZ867-665-643>646-311800-
LAKE MICHIGAN

STATION/POSITION TIME  TEMP    WIND        PRES    WAVE
                       AIR SEA DIR/SP/G            HT/PER
                 (UTC) (F)     (DEG/KT/KT) (MB)    (FT/S)
CHAMBERS ISLAND  1600   71      10/  2/  3 1020.3R
S GREEN BAY BUOY 1600   66 72  340/  6/  8 1020.0
N MID LAKE BUOY  1650   68 71  320/ 10/ 12 1018.8F   1/ 3
NORTHPORT PIER   1600   68     330/  7/ 10 1020.0R
SISTER BAY       1637   71     350/ 11/ 12   N/A
ALGOMA LAKESHORE 1615          320/  8/  9   N/A
KEWAUNEE LAKESHO 1700   71      30/  5/ 10 1019.3F
SHEBOYGAN LAKESH 1700   66      30/ 10/ 10 1019.4S
PORT WASHINGTON  1600   68      40/  6/ 10 1020.3S
ATWATER BUOY     1700   66      20/ 12/ 14   N/A
MILWAUKEE LAKESH 1710   67      30/ 12/ 14   N/A
S MID LAKE BUOY  1650   70 75   20/ 17/ 23 1017.6R   4/ 6
KENOSHA   LAKESH 1700   67      20/ 14/ 16 1019.0R
$$

TC  - TEMPERATURE IN CELSIUS
VSB - VISIBILITY IN STATUTE MILES
WCI - WIND CHILL INDEX
HX  - HEAT INDEX





USA.gov is the U.S. government's official web portal to all federal, state and local government web resources and services.